FREGAT DEB, 45847

Orbit data source: Space-Track

FREGAT DEB, 45847 is space debris in LEO originally from a launch on Mon, 18 Jul 2011 UTC launched from the Tyuratam Missile And Space Complex (TTMTR). Debris objects in space refer to the collection of defunct objects orbiting the Earth. Examples of debris include non-operational satellites, rocket bodies, and fragments generated from explosions, collisions, or faulty payload assembly.

Loading next visibility...
Identifier
45847, 2011-037CH
Orbit
LEO
Country
Flag of CISCIS
Related business
Manufacturer
Lavochkin
Mission
Spacecraft
Bus & Motor
Unknown
Mass
Unknown
Launch date (UTC)
2011-07-18 (14 years ago)
Launch vehicle
Unknown
Launch site
Tyuratam Missile And Space Complex (TTMTR)
Object type
Payload
Rocket body
Debris
Shape & HBR
Unknown shape, 0.1 m
Radar Cross Section
Small (<0.1 m²)

Expand to show TLE details & history
Last TLE update: 14 hours ago

TLE from 14 hours ago
0 FREGAT DEB
1 45847U 11037CH  25312.46053777  .00116035  00000-0  78687-2 0  9996
2 45847  51.4094 330.0518 1057183 209.2100 144.5486 13.26194842232416
Epoch: 2025-11-08T11:03Z
TLE epoch observation values (Epoch: 2025-11-08T11:03:10.463Z)
Latitude
-0°
Longitude
116.36838°
Altitude
1,836.03 km
Speed
6.65 km/s
True Right ascension
22h 00m 12s
True Declination
0° 00' 00"
Sunlit
Object was in daylight at epoch
Visualization orbit readout
Latitude
Unknown
Longitude
Unknown
Altitude
Unknown
Speed
Unknown
Apparent Right ascension
Unknown
Apparent Declination
Unknown
Sunlit
N/A
Visualization observer readout
Local Sidereal Time
21:21:28
Azimuth
Unknown
Elevation
Unknown
Doppler factor
Unknown
Orbital elements
Apogee altitude
1,958.745 km
Perigee altitude
364.558 km
Semi-major axis
7,539.788 km
Eccentricity
0.10572
Inclination
51.4094°
RAAN
330.0518°
Arg. of periapsis
209.21°
True anomaly
150.87729°
Mean anomaly
144.5486°
Eccentric anomaly
147.77829°
Mean motion
3.31516 °/min
Orbital period
108.59 mins
BSTAR
0.0078687
Loading maneuver chart data...
Computing Atmospheric mass density...
Loading historical data...
Loading historical data...
Loading historical data...
Loading historical data...
Loading historical data...
Loading historical data...
Loading historical data...

Documentation

Showing up to 5 results
|